Showing default

KUIPER-00012, 63728

Orbit data source: Space-Track

KUIPER-00012, 63728 is a payload satellite owned by Kuiper Systems (US) in LEO that was launched on Mon, 28 Apr 2025 UTC via an ATLAS V 551 launch vehicle from the Air Force Eastern Test Range (AFETR). Payload-class satellites include a variety of spacecraft equipped with specific instruments for various scientific and technological missions. These include communications satellites like Starlink; space stations such as the ISS; scientific satellites like the Hubble; Earth observation satellites from companies like Planet Labs, Umbra, and HawkEye 360; GPS; miniature CubeSats for education and research; and military/defense satellites.

Loading next visibility...
Identifier
63728, 2025-088E
Orbit
LEO
Country
Flag of USUS
Related business
Manufacturer
Kuiper Systems
Mission
Operational Commercial Communications
Bus & Motor
KUIPER, Unknown motor
Mass
~490 kg wet, ~490 kg dry
Launch date (UTC)
2025-04-28 (1 year ago)
Launch vehicle
ATLAS V 551
Launch site
Air Force Eastern Test Range (AFETR)
Object type
Payload
Rocket body
Debris
Shape & HBR
Box + 2 Pan, 3.4 m
Radar Cross Section
2.326 m², Large (>1 m²)

Expand to show TLE details & history
Last TLE update: 1 day ago

TLE from 1 day ago
0 KUIPER-00012
1 63728U 25088E   26170.88839824 -.00000431  00000-0 -27518-4 0  9992
2 63728  51.9028 343.6678 0000722 137.4634 222.6385 14.79926817 63055
Epoch: 2026-06-19T21:19Z
TLE epoch observation values (Epoch: 2026-06-19T21:19:17.607Z)
Latitude
0.00001°
Longitude
115.73353°
Altitude
630.674 km
Speed
7.544 km/s
True Right ascension
22h 54m 40s
True Declination
0° 00' 00"
Sunlit
Object was in daylight at epoch
Visualization orbit readout
Latitude
Unknown
Longitude
Unknown
Altitude
Unknown
Speed
Unknown
Apparent Right ascension
Unknown
Apparent Declination
Unknown
Sunlit
N/A
Visualization observer readout
Local Sidereal Time
10:18:48
Azimuth
Unknown
Elevation
Unknown
Doppler factor
Unknown
Orbital elements
Apogee altitude
630.512 km
Perigee altitude
629.5 km
Semi-major axis
7,008.143 km
Eccentricity
0.00007
Inclination
51.9028°
RAAN
343.6678°
Arg. of periapsis
137.4634°
True anomaly
222.6329°
Mean anomaly
222.6385°
Eccentric anomaly
222.6357°
Mean motion
3.69946 °/min
Orbital period
97.31 mins
BSTAR
-0.000027518
Loading maneuver chart data...
Computing Atmospheric mass density...
Loading historical data...
Loading historical data...
Loading historical data...
Loading historical data...
Loading historical data...
Loading historical data...
Loading historical data...

Documentation

Showing up to 5 results
|